Time,TemperatureF,DewpointF,PressureIn,WindDirection,WindDirectionDegrees,WindSpeedMPH,WindSpeedGustMPH,Humidity,HourlyPrecipIn,Conditions,Clouds,dailyrainin,SoftwareType,DateUTC
2013-02-07 00:00:00,28.3,12.5,30.29,West,272,4.0,4.0,51,0.00,,,0.00,Wunderground v.1.15,2013-02-07 05:00:00,
2013-02-07 00:01:00,28.3,12.9,30.29,West,275,3.0,4.0,52,0.00,,,0.00,Wunderground v.1.15,2013-02-07 05:01:00,
2013-02-07 00:03:00,28.2,12.4,30.29,WNW,298,3.0,7.0,51,0.00,,,0.00,Wunderground v.1.15,2013-02-07 05:03:00,
2013-02-07 00:08:00,28.2,12.4,30.29,West,274,2.0,7.0,51,0.00,,,0.00,Wunderground v.1.15,2013-02-07 05:08:00,
2013-02-07 00:13:00,28.1,12.3,30.29,West,263,3.0,5.0,51,0.00,,,0.00,Wunderground v.1.15,2013-02-07 05:13:00,
2013-02-07 00:19:00,28.0,12.2,30.30,WNW,288,2.0,5.0,51,0.00,,,0.00,Wunderground v.1.15,2013-02-07 05:19:00,
2013-02-07 00:24:00,27.9,12.1,30.30,WNW,289,2.0,7.0,51,0.00,,,0.00,Wunderground v.1.15,2013-02-07 05:24:00,
2013-02-07 00:30:00,27.8,12.0,30.31,NNW,327,2.0,4.0,51,0.00,,,0.00,Wunderground v.1.15,2013-02-07 05:30:00,
2013-02-07 00:35:00,27.7,12.3,30.31,WNW,283,2.0,6.0,52,0.00,,,0.00,Wunderground v.1.15,2013-02-07 05:35:00,
2013-02-07 00:40:00,27.5,11.3,30.31,WNW,300,2.0,4.0,50,0.00,,,0.00,Wunderground v.1.15,2013-02-07 05:40:00,
2013-02-07 00:46:00,27.4,11.2,30.30,NNW,328,2.0,7.0,50,0.00,,,0.00,Wunderground v.1.15,2013-02-07 05:46:00,
2013-02-07 00:51:00,27.3,11.1,30.31,West,261,3.0,4.0,50,0.00,,,0.00,Wunderground v.1.15,2013-02-07 05:51:00,
2013-02-07 00:57:00,27.3,11.1,30.31,West,276,3.0,6.0,50,0.00,,,0.00,Wunderground v.1.15,2013-02-07 05:57:00,
2013-02-07 01:02:00,27.2,10.5,30.30,West,278,3.0,6.0,49,0.00,,,0.00,Wunderground v.1.15,2013-02-07 06:02:00,
2013-02-07 01:08:00,27.2,11.0,30.30,West,267,3.0,7.0,50,0.00,,,0.00,Wunderground v.1.15,2013-02-07 06:08:00,
2013-02-07 01:13:00,27.1,11.3,30.30,West,266,2.0,4.0,51,0.00,,,0.00,Wunderground v.1.15,2013-02-07 06:13:00,
2013-02-07 01:19:00,26.9,10.7,30.30,West,279,2.0,4.0,50,0.00,,,0.00,Wunderground v.1.15,2013-02-07 06:19:00,
2013-02-07 01:24:00,26.9,10.7,30.30,WNW,302,2.0,7.0,50,0.00,,,0.00,Wunderground v.1.15,2013-02-07 06:24:00,
2013-02-07 01:30:00,26.7,10.1,30.31,West,260,3.0,3.0,49,0.00,,,0.00,Wunderground v.1.15,2013-02-07 06:30:00,
2013-02-07 01:35:00,26.7,10.5,30.32,West,281,2.0,8.0,50,0.00,,,0.00,Wunderground v.1.15,2013-02-07 06:35:00,
2013-02-07 01:41:00,26.6,10.4,30.31,NW,318,2.0,4.0,50,0.00,,,0.00,Wunderground v.1.15,2013-02-07 06:41:00,
2013-02-07 01:47:00,26.6,10.9,30.31,West,280,3.0,7.0,51,0.00,,,0.00,Wunderground v.1.15,2013-02-07 06:47:00,
2013-02-07 01:53:00,26.5,10.8,30.32,NW,318,3.0,3.0,51,0.00,,,0.00,Wunderground v.1.15,2013-02-07 06:53:00,
2013-02-07 01:58:00,26.4,10.3,30.32,NNW,327,2.0,6.0,50,0.00,,,0.00,Wunderground v.1.15,2013-02-07 06:58:00,
2013-02-07 02:03:00,26.3,10.2,30.32,WNW,285,2.0,7.0,50,0.00,,,0.00,Wunderground v.1.15,2013-02-07 07:03:00,
2013-02-07 02:09:00,26.2,10.5,30.32,WNW,286,2.0,7.0,51,0.00,,,0.00,Wunderground v.1.15,2013-02-07 07:09:00,
2013-02-07 02:14:00,26.1,10.4,30.32,West,274,2.0,8.0,51,0.00,,,0.00,Wunderground v.1.15,2013-02-07 07:14:00,
2013-02-07 02:20:00,26.2,10.5,30.33,NNW,329,3.0,7.0,51,0.00,,,0.00,Wunderground v.1.15,2013-02-07 07:20:00,
2013-02-07 02:26:00,26.1,10.4,30.33,WNW,303,3.0,7.0,51,0.00,,,0.00,Wunderground v.1.15,2013-02-07 07:26:00,
2013-02-07 02:32:00,26.1,10.4,30.33,WNW,298,3.0,3.0,51,0.00,,,0.00,Wunderground v.1.15,2013-02-07 07:32:00,
2013-02-07 02:37:00,26.0,9.9,30.33,NW,316,4.0,8.0,50,0.00,,,0.00,Wunderground v.1.15,2013-02-07 07:37:00,
2013-02-07 02:43:00,26.0,9.9,30.33,WNW,298,4.0,4.0,50,0.00,,,0.00,Wunderground v.1.15,2013-02-07 07:43:00,
2013-02-07 02:48:00,26.0,9.9,30.34,NW,306,2.0,4.0,50,0.00,,,0.00,Wunderground v.1.15,2013-02-07 07:48:00,
2013-02-07 02:54:00,25.8,10.1,30.34,West,275,1.0,3.0,51,0.00,,,0.00,Wunderground v.1.15,2013-02-07 07:54:00,
2013-02-07 02:59:00,25.7,10.5,30.34,West,267,1.0,5.0,52,0.00,,,0.00,Wunderground v.1.15,2013-02-07 07:59:00,
2013-02-07 03:04:00,25.5,10.3,30.35,WNW,303,1.0,4.0,52,0.00,,,0.00,Wunderground v.1.15,2013-02-07 08:04:00,
2013-02-07 03:10:00,25.3,10.5,30.35,NW,309,1.0,1.0,53,0.00,,,0.00,Wunderground v.1.15,2013-02-07 08:10:00,
2013-02-07 03:16:00,25.2,10.0,30.36,NW,326,2.0,7.0,52,0.00,,,0.00,Wunderground v.1.15,2013-02-07 08:16:00,
2013-02-07 03:22:00,25.1,10.3,30.36,WNW,286,2.0,4.0,53,0.00,,,0.00,Wunderground v.1.15,2013-02-07 08:22:00,
2013-02-07 03:28:00,25.1,10.3,30.36,NNW,336,2.0,4.0,53,0.00,,,0.00,Wunderground v.1.15,2013-02-07 08:28:00,
2013-02-07 03:33:00,25.0,10.3,30.36,WNW,300,1.0,2.0,53,0.00,,,0.00,Wunderground v.1.15,2013-02-07 08:33:00,
2013-02-07 03:39:00,24.9,10.2,30.36,WNW,303,1.0,3.0,53,0.00,,,0.00,Wunderground v.1.15,2013-02-07 08:39:00,
2013-02-07 03:45:00,24.8,10.5,30.36,WNW,294,2.0,4.0,54,0.00,,,0.00,Wunderground v.1.15,2013-02-07 08:45:00,
2013-02-07 03:51:00,24.7,10.4,30.36,NW,325,1.0,2.0,54,0.00,,,0.00,Wunderground v.1.15,2013-02-07 08:51:00,
2013-02-07 03:56:00,24.6,10.3,30.36,WNW,295,1.0,2.0,54,0.00,,,0.00,Wunderground v.1.15,2013-02-07 08:56:00,
2013-02-07 04:02:00,24.5,10.2,30.36,WNW,285,1.0,2.0,54,0.00,,,0.00,Wunderground v.1.15,2013-02-07 09:02:00,
2013-02-07 04:07:00,24.5,10.6,30.36,NW,320,2.0,3.0,55,0.00,,,0.00,Wunderground v.1.15,2013-02-07 09:07:00,
2013-02-07 04:12:00,24.5,10.2,30.37,NW,317,2.0,7.0,54,0.00,,,0.00,Wunderground v.1.15,2013-02-07 09:12:00,
2013-02-07 04:18:00,24.6,10.7,30.37,West,273,3.0,7.0,55,0.00,,,0.00,Wunderground v.1.15,2013-02-07 09:18:00,
2013-02-07 04:23:00,24.5,10.2,30.37,NNW,331,2.0,5.0,54,0.00,,,0.00,Wunderground v.1.15,2013-02-07 09:23:00,
2013-02-07 04:29:00,24.5,10.6,30.37,West,281,2.0,5.0,55,0.00,,,0.00,Wunderground v.1.15,2013-02-07 09:29:00,
2013-02-07 04:34:00,24.5,10.6,30.37,WNW,298,2.0,5.0,55,0.00,,,0.00,Wunderground v.1.15,2013-02-07 09:34:00,
2013-02-07 04:40:00,24.4,10.9,30.37,WNW,286,1.0,1.0,56,0.00,,,0.00,Wunderground v.1.15,2013-02-07 09:40:00,
2013-02-07 04:45:00,24.3,10.8,30.37,NW,306,1.0,3.0,56,0.00,,,0.00,Wunderground v.1.15,2013-02-07 09:45:00,
2013-02-07 04:51:00,24.2,10.7,30.37,West,269,2.0,5.0,56,0.00,,,0.00,Wunderground v.1.15,2013-02-07 09:51:00,
2013-02-07 04:56:00,24.1,11.0,30.38,WNW,301,1.0,5.0,57,0.00,,,0.00,Wunderground v.1.15,2013-02-07 09:56:00,
2013-02-07 05:02:00,24.0,11.0,30.39,NW,312,1.0,4.0,57,0.00,,,0.00,Wunderground v.1.15,2013-02-07 10:02:00,
2013-02-07 05:07:00,23.9,11.3,30.39,NW,310,1.0,4.0,58,0.00,,,0.00,Wunderground v.1.15,2013-02-07 10:07:00,
2013-02-07 05:12:00,23.9,10.9,30.39,WNW,300,1.0,3.0,57,0.00,,,0.00,Wunderground v.1.15,2013-02-07 10:12:00,
2013-02-07 05:18:00,23.8,11.2,30.39,WNW,298,1.0,3.0,58,0.00,,,0.00,Wunderground v.1.15,2013-02-07 10:18:00,
2013-02-07 05:23:00,23.6,11.0,30.40,NW,310,0.0,3.0,58,0.00,,,0.00,Wunderground v.1.15,2013-02-07 10:23:00,
2013-02-07 05:29:00,23.5,10.9,30.40,WNW,296,1.0,3.0,58,0.00,,,0.00,Wunderground v.1.15,2013-02-07 10:29:00,
2013-02-07 05:34:00,23.4,10.8,30.40,West,281,1.0,5.0,58,0.00,,,0.00,Wunderground v.1.15,2013-02-07 10:34:00,
2013-02-07 05:40:00,23.4,11.2,30.40,NW,306,1.0,3.0,59,0.00,,,0.00,Wunderground v.1.15,2013-02-07 10:40:00,
2013-02-07 05:46:00,23.3,11.4,30.40,NW,309,1.0,6.0,60,0.00,,,0.00,Wunderground v.1.15,2013-02-07 10:46:00,
2013-02-07 05:51:00,23.3,11.1,30.41,West,273,1.0,1.0,59,0.00,,,0.00,Wunderground v.1.15,2013-02-07 10:51:00,
2013-02-07 05:57:00,23.1,11.3,30.41,West,261,0.0,1.0,60,0.00,,,0.00,Wunderground v.1.15,2013-02-07 10:57:00,
2013-02-07 06:02:00,23.0,11.5,30.41,NW,313,1.0,2.0,61,0.00,,,0.00,Wunderground v.1.15,2013-02-07 11:02:00,
2013-02-07 06:07:00,22.9,11.8,30.41,WNW,288,1.0,4.0,62,0.00,,,0.00,Wunderground v.1.15,2013-02-07 11:07:00,
2013-02-07 06:12:00,22.8,11.7,30.41,WNW,292,1.0,1.0,62,0.00,,,0.00,Wunderground v.1.15,2013-02-07 11:12:00,
2013-02-07 06:18:00,22.7,12.0,30.41,NW,319,1.0,1.0,63,0.00,,,0.00,Wunderground v.1.15,2013-02-07 11:18:00,
2013-02-07 06:23:00,22.6,11.5,30.42,WNW,297,0.0,2.0,62,0.00,,,0.00,Wunderground v.1.15,2013-02-07 11:23:00,
2013-02-07 06:29:00,22.5,11.8,30.42,NW,309,1.0,3.0,63,0.00,,,0.00,Wunderground v.1.15,2013-02-07 11:29:00,
2013-02-07 06:35:00,22.4,11.7,30.43,NW,319,0.0,1.0,63,0.00,,,0.00,Wunderground v.1.15,2013-02-07 11:35:00,
2013-02-07 06:41:00,22.2,11.9,30.43,West,265,0.0,0.0,64,0.00,,,0.00,Wunderground v.1.15,2013-02-07 11:41:00,
2013-02-07 06:46:00,22.1,12.1,30.43,WNW,285,0.0,1.0,65,0.00,,,0.00,Wunderground v.1.15,2013-02-07 11:46:00,
2013-02-07 06:51:00,22.1,11.8,30.42,WNW,293,1.0,1.0,64,0.00,,,0.00,Wunderground v.1.15,2013-02-07 11:51:00,
2013-02-07 06:57:00,22.0,11.7,30.42,WNW,300,0.0,1.0,64,0.00,,,0.00,Wunderground v.1.15,2013-02-07 11:57:00,
2013-02-07 07:03:00,21.8,11.8,30.43,NW,319,0.0,0.0,65,0.00,,,0.00,Wunderground v.1.15,2013-02-07 12:03:00,
2013-02-07 07:09:00,21.7,12.1,30.43,NW,315,0.0,0.0,66,0.00,,,0.00,Wunderground v.1.15,2013-02-07 12:09:00,
2013-02-07 07:15:00,21.6,12.0,30.44,WNW,302,0.0,2.0,66,0.00,,,0.00,Wunderground v.1.15,2013-02-07 12:15:00,
2013-02-07 07:20:00,21.7,11.4,30.44,WNW,300,1.0,2.0,64,0.00,,,0.00,Wunderground v.1.15,2013-02-07 12:20:00,
2013-02-07 07:25:00,21.9,11.6,30.44,NW,313,1.0,3.0,64,0.00,,,0.00,Wunderground v.1.15,2013-02-07 12:25:00,
2013-02-07 07:31:00,22.2,11.9,30.45,West,281,1.0,1.0,64,0.00,,,0.00,Wunderground v.1.15,2013-02-07 12:31:00,
2013-02-07 07:36:00,22.4,12.1,30.46,WNW,287,1.0,1.0,64,0.00,,,0.00,Wunderground v.1.15,2013-02-07 12:36:00,
2013-02-07 07:41:00,22.6,12.2,30.46,NW,312,0.0,2.0,64,0.00,,,0.00,Wunderground v.1.15,2013-02-07 12:41:00,
2013-02-07 07:47:00,22.8,12.1,30.47,NW,310,1.0,2.0,63,0.00,,,0.00,Wunderground v.1.15,2013-02-07 12:47:00,
2013-02-07 07:52:00,23.0,11.5,30.47,NNW,327,1.0,3.0,61,0.00,,,0.00,Wunderground v.1.15,2013-02-07 12:52:00,
2013-02-07 07:58:00,23.2,11.4,30.47,WNW,302,1.0,4.0,60,0.00,,,0.00,Wunderground v.1.15,2013-02-07 12:58:00,
2013-02-07 08:03:00,23.3,10.7,30.47,NNE,33,2.0,6.0,58,0.00,,,0.00,Wunderground v.1.15,2013-02-07 13:03:00,
2013-02-07 08:09:00,23.5,10.9,30.48,West,260,2.0,6.0,58,0.00,,,0.00,Wunderground v.1.15,2013-02-07 13:09:00,
2013-02-07 08:14:00,23.6,10.6,30.48,NW,305,2.0,3.0,57,0.00,,,0.00,Wunderground v.1.15,2013-02-07 13:14:00,
2013-02-07 08:19:00,23.7,10.7,30.48,WNW,300,3.0,4.0,57,0.00,,,0.00,Wunderground v.1.15,2013-02-07 13:19:00,
2013-02-07 08:25:00,23.8,10.4,30.48,NW,315,3.0,8.0,56,0.00,,,0.00,Wunderground v.1.15,2013-02-07 13:25:00,
2013-02-07 08:30:00,23.8,10.4,30.48,NNE,15,3.0,3.0,56,0.00,,,0.00,Wunderground v.1.15,2013-02-07 13:30:00,
2013-02-07 08:36:00,23.8,10.8,30.48,NNW,348,3.0,5.0,57,0.00,,,0.00,Wunderground v.1.15,2013-02-07 13:36:00,
2013-02-07 08:42:00,23.9,10.9,30.48,WNW,297,2.0,6.0,57,0.00,,,0.00,Wunderground v.1.15,2013-02-07 13:42:00,
2013-02-07 08:47:00,24.0,11.3,30.48,NNW,344,2.0,6.0,58,0.00,,,0.00,Wunderground v.1.15,2013-02-07 13:47:00,
2013-02-07 08:53:00,24.2,11.5,30.48,NNW,348,1.0,2.0,58,0.00,,,0.00,Wunderground v.1.15,2013-02-07 13:53:00,
2013-02-07 08:59:00,24.4,11.3,30.48,West,279,1.0,7.0,57,0.00,,,0.00,Wunderground v.1.15,2013-02-07 13:59:00,
2013-02-07 09:04:00,24.6,10.7,30.49,NW,325,3.0,5.0,55,0.00,,,0.00,Wunderground v.1.15,2013-02-07 14:04:00,
2013-02-07 09:10:00,24.9,11.0,30.49,NW,309,3.0,3.0,55,0.00,,,0.00,Wunderground v.1.15,2013-02-07 14:10:00,
2013-02-07 09:15:00,25.2,11.3,30.50,NW,325,2.0,10.0,55,0.00,,,0.00,Wunderground v.1.15,2013-02-07 14:15:00,
2013-02-07 09:21:00,25.6,11.2,30.49,NW,319,2.0,2.0,54,0.00,,,0.00,Wunderground v.1.15,2013-02-07 14:21:00,
2013-02-07 09:26:00,25.7,11.3,30.50,West,279,1.0,3.0,54,0.00,,,0.00,Wunderground v.1.15,2013-02-07 14:26:00,
2013-02-07 09:31:00,26.0,10.8,30.50,West,280,2.0,2.0,52,0.00,,,0.00,Wunderground v.1.15,2013-02-07 14:31:00,
2013-02-07 09:37:00,26.1,10.9,30.50,West,274,2.0,5.0,52,0.00,,,0.00,Wunderground v.1.15,2013-02-07 14:37:00,
2013-02-07 09:42:00,26.4,10.7,30.50,NW,318,2.0,5.0,51,0.00,,,0.00,Wunderground v.1.15,2013-02-07 14:42:00,
2013-02-07 09:48:00,26.7,11.0,30.50,WNW,290,2.0,5.0,51,0.00,,,0.00,Wunderground v.1.15,2013-02-07 14:48:00,
2013-02-07 09:53:00,26.8,10.6,30.50,NNW,341,2.0,7.0,50,0.00,,,0.00,Wunderground v.1.15,2013-02-07 14:53:00,
2013-02-07 09:59:00,27.0,8.9,30.50,WNW,283,3.0,7.0,46,0.00,,,0.00,Wunderground v.1.15,2013-02-07 14:59:00,
2013-02-07 10:04:00,27.0,8.9,30.51,NW,310,3.0,7.0,46,0.00,,,0.00,Wunderground v.1.15,2013-02-07 15:04:00,
2013-02-07 10:09:00,27.3,8.7,30.51,NW,314,3.0,7.0,45,0.00,,,0.00,Wunderground v.1.15,2013-02-07 15:09:00,
2013-02-07 10:15:00,27.6,9.0,30.52,NW,320,3.0,5.0,45,0.00,,,0.00,Wunderground v.1.15,2013-02-07 15:15:00,
2013-02-07 10:20:00,27.9,9.3,30.52,West,273,2.0,3.0,45,0.00,,,0.00,Wunderground v.1.15,2013-02-07 15:20:00,
2013-02-07 10:26:00,28.4,10.2,30.52,NNW,340,2.0,5.0,46,0.00,,,0.00,Wunderground v.1.15,2013-02-07 15:26:00,
2013-02-07 10:31:00,28.7,9.0,30.52,NW,325,3.0,6.0,43,0.00,,,0.00,Wunderground v.1.15,2013-02-07 15:31:00,
2013-02-07 10:36:00,28.7,9.0,30.52,WNW,282,3.0,8.0,43,0.00,,,0.00,Wunderground v.1.15,2013-02-07 15:36:00,
2013-02-07 10:42:00,29.0,10.8,30.53,NW,321,2.0,3.0,46,0.00,,,0.00,Wunderground v.1.15,2013-02-07 15:42:00,
2013-02-07 10:47:00,29.0,8.7,30.52,NW,312,2.0,6.0,42,0.00,,,0.00,Wunderground v.1.15,2013-02-07 15:47:00,
2013-02-07 10:53:00,29.2,10.0,30.52,West,261,3.0,5.0,44,0.00,,,0.00,Wunderground v.1.15,2013-02-07 15:53:00,
2013-02-07 10:59:00,29.6,9.3,30.51,NW,306,2.0,5.0,42,0.00,,,0.00,Wunderground v.1.15,2013-02-07 15:59:00,
2013-02-07 11:04:00,29.9,10.6,30.51,NW,315,3.0,4.0,44,0.00,,,0.00,Wunderground v.1.15,2013-02-07 16:04:00,
2013-02-07 11:09:00,30.0,9.6,30.51,WSW,246,3.0,6.0,42,0.00,,,0.00,Wunderground v.1.15,2013-02-07 16:09:00,
2013-02-07 11:15:00,30.3,9.9,30.51,NNW,333,3.0,4.0,42,0.00,,,0.00,Wunderground v.1.15,2013-02-07 16:15:00,
2013-02-07 11:20:00,30.6,9.7,30.51,NNW,329,3.0,4.0,41,0.00,,,0.00,Wunderground v.1.15,2013-02-07 16:20:00,
2013-02-07 11:25:00,30.8,9.3,30.51,West,276,3.0,4.0,40,0.00,,,0.00,Wunderground v.1.15,2013-02-07 16:25:00,
2013-02-07 11:31:00,30.8,9.8,30.51,WNW,284,2.0,3.0,41,0.00,,,0.00,Wunderground v.1.15,2013-02-07 16:31:00,
2013-02-07 11:36:00,31.2,9.1,30.51,WSW,238,2.0,4.0,39,0.00,,,0.00,Wunderground v.1.15,2013-02-07 16:36:00,
2013-02-07 11:42:00,31.6,9.4,30.50,West,264,3.0,5.0,39,0.00,,,0.00,Wunderground v.1.15,2013-02-07 16:42:00,
2013-02-07 11:47:00,31.7,9.5,30.50,NW,304,3.0,5.0,39,0.00,,,0.00,Wunderground v.1.15,2013-02-07 16:47:00,
2013-02-07 11:52:00,31.9,9.7,30.50,NW,322,3.0,3.0,39,0.00,,,0.00,Wunderground v.1.15,2013-02-07 16:52:00,
2013-02-07 11:58:00,32.1,9.9,30.50,WNW,284,2.0,4.0,39,0.00,,,0.00,Wunderground v.1.15,2013-02-07 16:58:00,
2013-02-07 12:03:00,32.6,10.9,30.49,NNW,327,2.0,3.0,40,0.00,,,0.00,Wunderground v.1.15,2013-02-07 17:03:00,
2013-02-07 12:09:00,33.0,10.7,30.49,West,269,2.0,3.0,39,0.00,,,0.00,Wunderground v.1.15,2013-02-07 17:09:00,
2013-02-07 12:14:00,33.0,10.1,30.49,WNW,303,2.0,2.0,38,0.00,,,0.00,Wunderground v.1.15,2013-02-07 17:14:00,
2013-02-07 12:20:00,32.7,8.6,30.49,NW,307,2.0,2.0,36,0.00,,,0.00,Wunderground v.1.15,2013-02-07 17:20:00,
2013-02-07 12:25:00,32.5,9.7,30.49,WNW,286,2.0,4.0,38,0.00,,,0.00,Wunderground v.1.15,2013-02-07 17:25:00,
2013-02-07 12:31:00,32.6,9.2,30.49,WNW,302,2.0,3.0,37,0.00,,,0.00,Wunderground v.1.15,2013-02-07 17:31:00,
2013-02-07 12:36:00,32.7,9.3,30.49,NW,314,2.0,6.0,37,0.00,,,0.00,Wunderground v.1.15,2013-02-07 17:36:00,
2013-02-07 12:41:00,32.8,7.5,30.48,North,5,2.0,2.0,34,0.00,,,0.00,Wunderground v.1.15,2013-02-07 17:41:00,
2013-02-07 12:46:00,32.5,7.2,30.48,West,272,3.0,4.0,34,0.00,,,0.00,Wunderground v.1.15,2013-02-07 17:46:00,
2013-02-07 12:52:00,32.5,7.2,30.49,NNW,334,3.0,4.0,34,0.00,,,0.00,Wunderground v.1.15,2013-02-07 17:52:00,
2013-02-07 12:57:00,32.6,9.2,30.48,NW,304,2.0,4.0,37,0.00,,,0.00,Wunderground v.1.15,2013-02-07 17:57:00,
2013-02-07 13:03:00,33.1,8.4,30.48,NNW,327,2.0,6.0,35,0.00,,,0.00,Wunderground v.1.15,2013-02-07 18:03:00,
2013-02-07 13:09:00,33.0,8.3,30.48,NNW,334,3.0,12.0,35,0.00,,,0.00,Wunderground v.1.15,2013-02-07 18:09:00,
2013-02-07 13:15:00,33.1,8.4,30.48,North,351,3.0,4.0,35,0.00,,,0.00,Wunderground v.1.15,2013-02-07 18:15:00,
2013-02-07 13:20:00,33.2,8.5,30.47,NNW,335,3.0,3.0,35,0.00,,,0.00,Wunderground v.1.15,2013-02-07 18:20:00,
2013-02-07 13:26:00,33.2,8.5,30.47,WNW,297,2.0,5.0,35,0.00,,,0.00,Wunderground v.1.15,2013-02-07 18:26:00,
2013-02-07 13:31:00,33.5,10.0,30.47,WNW,296,2.0,5.0,37,0.00,,,0.00,Wunderground v.1.15,2013-02-07 18:31:00,
2013-02-07 13:36:00,33.5,7.4,30.47,NNW,338,3.0,6.0,33,0.00,,,0.00,Wunderground v.1.15,2013-02-07 18:36:00,
2013-02-07 13:42:00,33.2,7.2,30.47,WNW,289,3.0,5.0,33,0.00,,,0.00,Wunderground v.1.15,2013-02-07 18:42:00,
2013-02-07 13:47:00,33.3,7.9,30.47,NW,317,3.0,5.0,34,0.00,,,0.00,Wunderground v.1.15,2013-02-07 18:47:00,
2013-02-07 13:53:00,33.5,8.1,30.47,NW,317,3.0,5.0,34,0.00,,,0.00,Wunderground v.1.15,2013-02-07 18:53:00,
2013-02-07 13:58:00,33.4,6.7,30.47,NW,315,3.0,6.0,32,0.00,,,0.00,Wunderground v.1.15,2013-02-07 18:58:00,
2013-02-07 14:03:00,33.5,7.4,30.47,SW,221,3.0,7.0,33,0.00,,,0.00,Wunderground v.1.15,2013-02-07 19:03:00,
2013-02-07 14:09:00,33.7,8.3,30.47,NW,312,2.0,7.0,34,0.00,,,0.00,Wunderground v.1.15,2013-02-07 19:09:00,
2013-02-07 14:14:00,33.9,7.8,30.46,NE,34,2.0,2.0,33,0.00,,,0.00,Wunderground v.1.15,2013-02-07 19:14:00,
2013-02-07 14:20:00,33.8,7.0,30.47,WNW,292,2.0,4.0,32,0.00,,,0.00,Wunderground v.1.15,2013-02-07 19:20:00,
2013-02-07 14:25:00,33.4,7.3,30.47,NW,320,3.0,6.0,33,0.00,,,0.00,Wunderground v.1.15,2013-02-07 19:25:00,
2013-02-07 14:31:00,33.3,7.9,30.47,NNW,340,2.0,2.0,34,0.00,,,0.00,Wunderground v.1.15,2013-02-07 19:31:00,
2013-02-07 14:36:00,33.3,7.2,30.47,NNW,346,1.0,2.0,33,0.00,,,0.00,Wunderground v.1.15,2013-02-07 19:36:00,
2013-02-07 14:41:00,33.5,7.4,30.47,NNW,348,1.0,2.0,33,0.00,,,0.00,Wunderground v.1.15,2013-02-07 19:41:00,
2013-02-07 14:47:00,33.8,7.7,30.47,NW,323,1.0,4.0,33,0.00,,,0.00,Wunderground v.1.15,2013-02-07 19:47:00,
2013-02-07 14:53:00,33.8,7.0,30.47,NW,317,1.0,2.0,32,0.00,,,0.00,Wunderground v.1.15,2013-02-07 19:53:00,
2013-02-07 14:58:00,33.4,8.6,30.47,NW,312,2.0,4.0,35,0.00,,,0.00,Wunderground v.1.15,2013-02-07 19:58:00,
2013-02-07 15:03:00,32.9,8.2,30.47,East,82,2.0,2.0,35,0.00,,,0.00,Wunderground v.1.15,2013-02-07 20:03:00,
2013-02-07 15:09:00,32.3,8.9,30.47,East,96,2.0,3.0,37,0.00,,,0.00,Wunderground v.1.15,2013-02-07 20:09:00,
2013-02-07 15:14:00,31.9,9.7,30.47,NE,45,2.0,5.0,39,0.00,,,0.00,Wunderground v.1.15,2013-02-07 20:14:00,
2013-02-07 15:19:00,31.4,8.7,30.47,NNE,23,2.0,2.0,38,0.00,,,0.00,Wunderground v.1.15,2013-02-07 20:19:00,
2013-02-07 15:25:00,31.1,9.0,30.47,ENE,61,2.0,2.0,39,0.00,,,0.00,Wunderground v.1.15,2013-02-07 20:25:00,
2013-02-07 15:31:00,30.6,9.1,30.47,NW,308,2.0,3.0,40,0.00,,,0.00,Wunderground v.1.15,2013-02-07 20:31:00,
2013-02-07 15:36:00,30.3,10.4,30.47,North,5,2.0,4.0,43,0.00,,,0.00,Wunderground v.1.15,2013-02-07 20:36:00,
2013-02-07 15:41:00,30.0,10.2,30.47,NE,56,2.0,2.0,43,0.00,,,0.00,Wunderground v.1.15,2013-02-07 20:41:00,
2013-02-07 15:46:00,29.8,10.5,30.47,NE,55,3.0,8.0,44,0.00,,,0.00,Wunderground v.1.15,2013-02-07 20:46:00,
2013-02-07 15:52:00,29.6,10.3,30.47,NNE,16,3.0,3.0,44,0.00,,,0.00,Wunderground v.1.15,2013-02-07 20:52:00,
2013-02-07 15:57:00,29.4,10.1,30.47,NNE,32,2.0,4.0,44,0.00,,,0.00,Wunderground v.1.15,2013-02-07 20:57:00,
2013-02-07 16:03:00,29.2,10.0,30.47,North,360,3.0,6.0,44,0.00,,,0.00,Wunderground v.1.15,2013-02-07 21:03:00,
2013-02-07 16:09:00,29.2,10.5,30.47,ENE,74,2.0,7.0,45,0.00,,,0.00,Wunderground v.1.15,2013-02-07 21:09:00,
2013-02-07 16:15:00,29.0,10.8,30.47,North,355,2.0,5.0,46,0.00,,,0.00,Wunderground v.1.15,2013-02-07 21:15:00,
2013-02-07 16:20:00,28.8,10.6,30.47,North,355,1.0,1.0,46,0.00,,,0.00,Wunderground v.1.15,2013-02-07 21:20:00,
2013-02-07 16:26:00,28.7,11.0,30.47,North,360,1.0,2.0,47,0.00,,,0.00,Wunderground v.1.15,2013-02-07 21:26:00,
2013-02-07 16:31:00,28.5,10.8,30.47,NNE,26,2.0,6.0,47,0.00,,,0.00,Wunderground v.1.15,2013-02-07 21:31:00,
2013-02-07 16:37:00,28.3,11.1,30.47,WNW,301,2.0,6.0,48,0.00,,,0.00,Wunderground v.1.15,2013-02-07 21:37:00,
2013-02-07 16:43:00,28.1,11.4,30.47,ENE,66,1.0,2.0,49,0.00,,,0.00,Wunderground v.1.15,2013-02-07 21:43:00,
2013-02-07 16:48:00,27.9,11.6,30.48,NNW,344,2.0,7.0,50,0.00,,,0.00,Wunderground v.1.15,2013-02-07 21:48:00,
2013-02-07 16:54:00,27.6,11.4,30.48,NE,42,1.0,1.0,50,0.00,,,0.00,Wunderground v.1.15,2013-02-07 21:54:00,
2013-02-07 16:59:00,27.4,11.6,30.48,ESE,118,1.0,2.0,51,0.00,,,0.00,Wunderground v.1.15,2013-02-07 21:59:00,
2013-02-07 17:05:00,27.2,11.9,30.49,NNE,29,1.0,4.0,52,0.00,,,0.00,Wunderground v.1.15,2013-02-07 22:05:00,
2013-02-07 17:10:00,27.0,11.7,30.49,ENE,57,1.0,2.0,52,0.00,,,0.00,Wunderground v.1.15,2013-02-07 22:10:00,
2013-02-07 17:16:00,26.7,11.8,30.49,ENE,76,1.0,2.0,53,0.00,,,0.00,Wunderground v.1.15,2013-02-07 22:16:00,
2013-02-07 17:21:00,26.5,11.7,30.49,ENE,62,1.0,3.0,53,0.00,,,0.00,Wunderground v.1.15,2013-02-07 22:21:00,
2013-02-07 17:26:00,26.3,11.9,30.50,NE,49,1.0,3.0,54,0.00,,,0.00,Wunderground v.1.15,2013-02-07 22:26:00,
2013-02-07 17:32:00,26.1,12.5,30.50,NNE,28,1.0,2.0,56,0.00,,,0.00,Wunderground v.1.15,2013-02-07 22:32:00,
2013-02-07 17:37:00,25.9,12.3,30.50,ESE,106,1.0,2.0,56,0.00,,,0.00,Wunderground v.1.15,2013-02-07 22:37:00,
2013-02-07 17:43:00,25.7,12.6,30.50,NNE,33,1.0,2.0,57,0.00,,,0.00,Wunderground v.1.15,2013-02-07 22:43:00,
2013-02-07 17:48:00,25.6,12.5,30.50,NE,55,0.0,2.0,57,0.00,,,0.00,Wunderground v.1.15,2013-02-07 22:48:00,
2013-02-07 17:54:00,25.3,12.6,30.50,ESE,108,0.0,3.0,58,0.00,,,0.00,Wunderground v.1.15,2013-02-07 22:54:00,
2013-02-07 17:59:00,25.2,12.9,30.50,ENE,74,0.0,4.0,59,0.00,,,0.00,Wunderground v.1.15,2013-02-07 22:59:00,
2013-02-07 18:04:00,25.1,13.2,30.50,NE,51,1.0,1.0,60,0.00,,,0.00,Wunderground v.1.15,2013-02-07 23:04:00,
2013-02-07 18:10:00,24.9,13.3,30.50,NE,47,1.0,1.0,61,0.00,,,0.00,Wunderground v.1.15,2013-02-07 23:10:00,
2013-02-07 18:15:00,24.8,13.2,30.50,NE,46,1.0,2.0,61,0.00,,,0.00,Wunderground v.1.15,2013-02-07 23:15:00,
2013-02-07 18:21:00,24.7,13.5,30.50,NNE,32,0.0,0.0,62,0.00,,,0.00,Wunderground v.1.15,2013-02-07 23:21:00,
2013-02-07 18:26:00,24.6,13.8,30.50,ENE,78,0.0,1.0,63,0.00,,,0.00,Wunderground v.1.15,2013-02-07 23:26:00,
2013-02-07 18:32:00,24.4,13.6,30.50,East,100,0.0,2.0,63,0.00,,,0.00,Wunderground v.1.15,2013-02-07 23:32:00,
2013-02-07 18:37:00,24.3,13.9,30.50,East,90,0.0,2.0,64,0.00,,,0.00,Wunderground v.1.15,2013-02-07 23:37:00,
2013-02-07 18:43:00,24.3,13.9,30.51,NE,49,0.0,1.0,64,0.00,,,0.00,Wunderground v.1.15,2013-02-07 23:43:00,
2013-02-07 18:48:00,24.2,14.1,30.51,NE,56,0.0,1.0,65,0.00,,,0.00,Wunderground v.1.15,2013-02-07 23:48:00,
2013-02-07 18:53:00,24.2,14.5,30.51,ENE,68,0.0,0.0,66,0.00,,,0.00,Wunderground v.1.15,2013-02-07 23:53:00,
2013-02-07 18:59:00,24.2,14.5,30.51,East,81,0.0,1.0,66,0.00,,,0.00,Wunderground v.1.15,2013-02-07 23:59:00,
2013-02-07 19:04:00,24.2,14.8,30.51,ENE,57,0.0,3.0,67,0.00,,,0.00,Wunderground v.1.15,2013-02-08 00:04:00,
2013-02-07 19:10:00,24.3,15.3,30.51,East,79,0.0,0.0,68,0.00,,,0.00,Wunderground v.1.15,2013-02-08 00:10:00,
2013-02-07 19:15:00,24.4,15.0,30.51,ENE,73,0.0,0.0,67,0.00,,,0.00,Wunderground v.1.15,2013-02-08 00:15:00,
2013-02-07 19:20:00,24.5,15.1,30.51,ENE,62,0.0,0.0,67,0.00,,,0.00,Wunderground v.1.15,2013-02-08 00:20:00,
2013-02-07 19:26:00,24.5,15.1,30.51,ENE,62,0.0,0.0,67,0.00,,,0.00,Wunderground v.1.15,2013-02-08 00:26:00,
2013-02-07 19:32:00,24.6,15.2,30.51,ENE,65,0.0,0.0,67,0.00,,,0.00,Wunderground v.1.15,2013-02-08 00:32:00,
2013-02-07 19:37:00,24.7,15.6,30.50,ENE,65,0.0,0.0,68,0.00,,,0.00,Wunderground v.1.15,2013-02-08 00:37:00,
2013-02-07 19:42:00,24.8,15.4,30.50,ENE,58,0.0,1.0,67,0.00,,,0.00,Wunderground v.1.15,2013-02-08 00:42:00,
2013-02-07 19:48:00,24.9,15.8,30.50,NE,48,0.0,1.0,68,0.00,,,0.00,Wunderground v.1.15,2013-02-08 00:48:00,
2013-02-07 19:53:00,25.0,15.9,30.50,NNE,31,0.0,0.0,68,0.00,,,0.00,Wunderground v.1.15,2013-02-08 00:53:00,
2013-02-07 19:59:00,25.1,16.0,30.50,NE,36,1.0,3.0,68,0.00,,,0.00,Wunderground v.1.15,2013-02-08 00:59:00,
2013-02-07 20:04:00,25.1,16.0,30.50,NE,40,1.0,1.0,68,0.00,,,0.00,Wunderground v.1.15,2013-02-08 01:04:00,
2013-02-07 20:09:00,25.2,16.1,30.50,ENE,57,0.0,1.0,68,0.00,,,0.00,Wunderground v.1.15,2013-02-08 01:09:00,
2013-02-07 20:15:00,25.2,16.1,30.50,NNE,23,0.0,1.0,68,0.00,,,0.00,Wunderground v.1.15,2013-02-08 01:15:00,
2013-02-07 20:20:00,25.3,16.2,30.50,North,360,0.0,0.0,68,0.00,,,0.00,Wunderground v.1.15,2013-02-08 01:20:00,
2013-02-07 20:26:00,25.3,16.2,30.50,NNE,31,0.0,0.0,68,0.00,,,0.00,Wunderground v.1.15,2013-02-08 01:26:00,
2013-02-07 20:31:00,25.3,16.5,30.50,NNE,30,0.0,0.0,69,0.00,,,0.00,Wunderground v.1.15,2013-02-08 01:31:00,
2013-02-07 20:37:00,25.4,16.3,30.50,NE,35,0.0,1.0,68,0.00,,,0.00,Wunderground v.1.15,2013-02-08 01:37:00,
2013-02-07 20:43:00,25.5,16.7,30.50,NE,35,0.0,0.0,69,0.00,,,0.00,Wunderground v.1.15,2013-02-08 01:43:00,
2013-02-07 20:48:00,25.5,16.7,30.50,NE,35,0.0,0.0,69,0.00,,,0.00,Wunderground v.1.15,2013-02-08 01:48:00,
2013-02-07 20:54:00,25.5,16.7,30.49,NNE,19,0.0,0.0,69,0.00,,,0.00,Wunderground v.1.15,2013-02-08 01:54:00,
2013-02-07 20:59:00,25.5,16.7,30.49,NNE,19,0.0,0.0,69,0.00,,,0.00,Wunderground v.1.15,2013-02-08 01:59:00,
2013-02-07 21:04:00,25.6,16.8,30.50,NNE,19,0.0,0.0,69,0.00,,,0.00,Wunderground v.1.15,2013-02-08 02:04:00,
2013-02-07 21:10:00,25.6,17.2,30.49,NE,53,0.0,0.0,70,0.00,,,0.00,Wunderground v.1.15,2013-02-08 02:10:00,
2013-02-07 21:15:00,25.7,17.6,30.49,NNE,30,0.0,0.0,71,0.00,,,0.00,Wunderground v.1.15,2013-02-08 02:15:00,
2013-02-07 21:21:00,25.7,17.9,30.49,North,9,0.0,0.0,72,0.00,,,0.00,Wunderground v.1.15,2013-02-08 02:21:00,
2013-02-07 21:26:00,25.8,18.0,30.49,North,355,0.0,3.0,72,0.00,,,0.00,Wunderground v.1.15,2013-02-08 02:26:00,
2013-02-07 21:32:00,25.8,18.0,30.49,ENE,69,1.0,1.0,72,0.00,,,0.00,Wunderground v.1.15,2013-02-08 02:32:00,
2013-02-07 21:37:00,25.9,18.4,30.49,NNW,348,0.0,1.0,73,0.00,,,0.00,Wunderground v.1.15,2013-02-08 02:37:00,
2013-02-07 21:43:00,26.0,18.5,30.48,NNE,26,0.0,0.0,73,0.00,,,0.00,Wunderground v.1.15,2013-02-08 02:43:00,
2013-02-07 21:48:00,26.1,18.9,30.48,NNE,32,0.0,4.0,74,0.00,,,0.00,Wunderground v.1.15,2013-02-08 02:48:00,
2013-02-07 21:54:00,26.2,19.0,30.48,NNE,26,0.0,2.0,74,0.00,,,0.00,Wunderground v.1.15,2013-02-08 02:54:00,
2013-02-07 21:59:00,26.3,19.5,30.48,NE,48,0.0,2.0,75,0.00,,,0.00,Wunderground v.1.15,2013-02-08 02:59:00,
2013-02-07 22:04:00,26.4,19.5,30.48,East,80,0.0,2.0,75,0.00,,,0.00,Wunderground v.1.15,2013-02-08 03:04:00,
2013-02-07 22:09:00,26.5,19.6,30.48,NE,46,0.0,0.0,75,0.00,,,0.00,Wunderground v.1.15,2013-02-08 03:09:00,
2013-02-07 22:15:00,26.6,20.1,30.48,ENE,61,0.0,0.0,76,0.00,,,0.00,Wunderground v.1.15,2013-02-08 03:15:00,
2013-02-07 22:20:00,26.7,20.1,30.48,NE,35,0.0,0.0,76,0.00,,,0.00,Wunderground v.1.15,2013-02-08 03:20:00,
2013-02-07 22:26:00,26.8,20.2,30.48,NE,35,0.0,0.0,76,0.00,,,0.00,Wunderground v.1.15,2013-02-08 03:26:00,
2013-02-07 22:31:00,26.9,20.3,30.49,NNE,13,0.0,0.0,76,0.00,,,0.00,Wunderground v.1.15,2013-02-08 03:31:00,
2013-02-07 22:37:00,26.9,20.3,30.49,NNE,27,0.0,0.0,76,0.00,,,0.00,Wunderground v.1.15,2013-02-08 03:37:00,
2013-02-07 22:42:00,27.0,20.4,30.49,NNE,27,0.0,0.0,76,0.00,,,0.00,Wunderground v.1.15,2013-02-08 03:42:00,
2013-02-07 22:47:00,27.0,20.4,30.49,NNE,27,0.0,0.0,76,0.00,,,0.00,Wunderground v.1.15,2013-02-08 03:47:00,
2013-02-07 22:53:00,27.0,20.4,30.49,NNE,27,0.0,0.0,76,0.00,,,0.00,Wunderground v.1.15,2013-02-08 03:53:00,
2013-02-07 22:58:00,27.0,20.7,30.49,NNE,27,0.0,0.0,77,0.00,,,0.00,Wunderground v.1.15,2013-02-08 03:58:00,
2013-02-07 23:03:00,27.0,20.7,30.49,NNE,27,0.0,0.0,77,0.00,,,0.00,Wunderground v.1.15,2013-02-08 04:03:00,
2013-02-07 23:09:00,27.1,20.5,30.49,NNE,27,0.0,0.0,76,0.00,,,0.00,Wunderground v.1.15,2013-02-08 04:09:00,
2013-02-07 23:15:00,27.0,20.7,30.48,NNE,27,0.0,0.0,77,0.00,,,0.00,Wunderground v.1.15,2013-02-08 04:15:00,
2013-02-07 23:20:00,27.0,20.7,30.48,NNE,27,0.0,0.0,77,0.00,,,0.00,Wunderground v.1.15,2013-02-08 04:20:00,
2013-02-07 23:26:00,27.0,20.7,30.48,NNE,27,0.0,0.0,77,0.00,,,0.00,Wunderground v.1.15,2013-02-08 04:26:00,
2013-02-07 23:31:00,27.0,20.7,30.48,NNE,27,0.0,0.0,77,0.00,,,0.00,Wunderground v.1.15,2013-02-08 04:31:00,
2013-02-07 23:36:00,26.9,20.7,30.47,NNE,27,0.0,0.0,77,0.00,,,0.00,Wunderground v.1.15,2013-02-08 04:36:00,
2013-02-07 23:42:00,26.9,21.0,30.47,NNE,27,0.0,0.0,78,0.00,,,0.00,Wunderground v.1.15,2013-02-08 04:42:00,
2013-02-07 23:47:00,26.8,20.9,30.47,NNE,27,0.0,0.0,78,0.00,,,0.00,Wunderground v.1.15,2013-02-08 04:47:00,
2013-02-07 23:53:00,26.8,21.2,30.47,NNE,28,0.0,1.0,79,0.00,,,0.00,Wunderground v.1.15,2013-02-08 04:53:00,
2013-02-07 23:58:00,26.9,21.6,30.47,ENE,65,0.0,1.0,80,0.00,,,0.00,Wunderground v.1.15,2013-02-08 04:58:00,